Overview Statistics Trail Chart Weather Telemetry Raw packets
 

This is the latest recevied weather packets stored in our database for station/object KE6YLF. If no packets are shown the sender has not sent any weather packets the latest 10 day(s).

<< 18 19 20 21 22 23 24 >>
Time Temp. Humidity Pressure Rain* Wind** Luminosity Snow
1788564547 36.11° C 31% 1074.4 hPa 0 mm - - -
1788564244 36.67° C 31% 1074.7 hPa 0 mm - - -
1788563939 36.67° C 31% 1074.7 hPa 0 mm - - -
1788563634 36.67° C 30% 1074.7 hPa 0 mm - - -
1788563329 36.67° C 31% 1074.6 hPa 0 mm - - -
1788563028 36.11° C 31% 1074.7 hPa 0 mm - - -
1788562723 36.67° C 31% 1074.7 hPa 0 mm - - -
1788562421 37.22° C 30% 1074.7 hPa 0 mm - - -
1788562124 36.67° C 31% 1074.9 hPa 0 mm - - -
1788561812 37.78° C 30% 1075 hPa 0 mm - - -
1788561511 36.67° C 31% 1074.9 hPa 0 mm - - -
1788561211 37.22° C 31% 1075.1 hPa 0 mm - - -
1788560907 37.78° C 30% 1074.9 hPa 0 mm - - -
1788560607 37.22° C 30% 1075 hPa 0 mm - - -
1788560307 37.22° C 31% 1074.9 hPa 0 mm - - -
1788560001 37.78° C 31% 1075 hPa 0 mm - - -
1788559697 37.22° C 31% 1075.1 hPa 0 mm - - -
1788559396 37.22° C 32% 1075 hPa 0 mm - - -
1788559092 37.22° C 33% 1075.2 hPa 0 mm - - -
1788558787 36.67° C 33% 1075.1 hPa 0 mm - - -
1788558483 37.22° C 33% 1075.1 hPa 0 mm - - -
1788558178 36.67° C 34% 1075.1 hPa 0 mm - - -
1788557876 37.22° C 33% 1075.4 hPa 0 mm - - -
1788557573 36.11° C 35% 1075.3 hPa 0 mm - - -
1788557268 36.11° C 34% 1075.4 hPa 0 mm - - -

* Rain latest hour (hover to see other rain measurements)
** Current wind speed in m/s (hover to see current wind gust speed)